Lapse_Rate
5.1 5.1 5.1 5.1 5.2 5.2 5.3 5.3 5.4 5.5 5.6 5.7 5.7 5.8 5.9 5.9 6.0 6.0 6.0 6.1 6.1 6.1 6.1 6.1 6.1 6.0 6.0 5.7 5.2 6.0 6.2 6.2 6.1 6.0 5.9 5.9 6.0 6.3 6.8 6.9 6.9 7.2 6.9 6.4 6.2 6.2 5.9
5.1 5.2 5.1 5.1 5.1 5.2 5.3 5.3 5.4 5.5 5.6 5.7 5.8 5.9 6.0 6.0 6.1 6.1 6.1 6.2 6.2 6.2 6.1 6.2 6.2 6.1 6.0 5.3 5.8 5.8 6.0 6.1 6.0 6.0 6.0 6.0 6.2 6.4 6.6 6.8 6.8 6.8 6.8 6.4 6.3 6.3 6.2
5.2 5.2 5.1 5.1 5.2 5.2 5.2 5.3 5.4 5.5 5.6 5.7 5.8 5.9 5.9 6.0 6.1 6.1 6.2 6.2 6.2 6.2 6.2 6.2 6.2 6.2 6.0 5.1 5.9 5.8 5.9 5.9 5.9 6.0 5.9 6.1 6.2 6.2 6.7 6.9 6.6 6.7 6.8 6.4 6.4 6.3 6.5
5.2 5.1 5.1 5.1 5.2 5.2 5.2 5.3 5.3 5.4 5.5 5.6 5.7 5.8 6.0 6.0 6.1 6.1 6.1 6.1 6.2 6.2 6.2 6.2 6.2 6.1 5.6 6.2 5.9 5.9 5.8 5.8 5.9 5.8 5.7 6.1 6.0 6.3 6.7 6.9 6.8 7.0 6.6 5.9 6.4 6.2 6.4
5.3 5.2 5.1 5.1 5.1 5.2 5.2 5.3 5.3 5.3 5.4 5.4 5.5 5.6 5.8 5.9 6.1 6.1 6.1 6.2 6.1 6.1 6.1 6.1 6.1 6.0 5.5 6.1 5.9 5.8 5.8 5.7 5.8 5.8 5.9 6.2 6.3 6.7 7.0 7.1 8.5 7.8 7.2 6.5 7.0 6.6 6.6
5.4 5.3 5.3 5.2 5.2 5.1 5.2 5.2 5.3 5.3 5.4 5.4 5.4 5.5 5.6 5.7 5.8 5.9 6.1 6.1 6.1 6.0 6.1 6.1 6.0 6.0 6.1 6.1 5.7 5.6 5.9 5.3 5.6 5.4 5.8 6.1 6.3 7.0 7.3 7.7 8.7 8.2 8.0 7.7 7.1 6.9 6.8
5.3 5.3 5.3 5.2 5.2 5.2 5.3 5.3 5.3 5.3 5.4 5.3 5.3 5.4 5.4 5.6 5.6 5.7 5.8 5.8 5.9 5.7 6.0 6.1 5.6 5.8 5.6 5.6 5.5 5.5 5.9 5.9 5.5 5.6 5.9 6.0 6.6 7.4 8.0 8.1 9.1 8.4 8.0 7.8 7.7 7.1 7.5
5.2 5.2 5.3 5.3 5.2 5.2 5.3 5.2 5.3 5.3 5.4 5.3 5.3 5.3 5.3 5.5 5.5 5.6 5.6 5.5 5.8 5.8 5.9 5.9 6.0 5.6 5.7 5.6 5.5 5.4 5.7 5.6 5.8 6.1 6.3 6.6 6.8 7.6 8.1 8.8 8.5 8.2 8.7 8.2 7.8 7.5 7.7
5.1 5.1 5.2 5.2 5.2 5.3 5.3 5.3 5.4 5.5 5.4 5.3 5.3 5.0 5.0 5.1 5.2 5.2 5.2 5.3 5.4 5.4 5.8 6.1 6.0 5.8 5.9 5.8 6.1 6.0 5.6 5.9 6.2 6.4 6.8 7.1 7.5 7.3 7.8 8.0 7.9 8.2 9.3 9.0 9.3 7.6 7.8
5.1 5.1 5.1 5.1 5.1 5.2 5.3 5.3 5.4 5.5 5.4 5.3 5.2 5.0 4.8 4.8 4.9 4.9 4.9 5.1 5.1 5.3 5.2 6.2 6.0 6.0 5.7 5.8 6.0 6.5 6.0 6.3 6.6 6.8 7.1 7.1 7.4 7.3 7.7 7.8 8.2 8.6 8.8 9.0 8.3 8.1 9.2
5.2 5.3 5.4 5.4 5.4 5.4 5.5 5.4 5.4 5.3 5.2 5.2 5.3 5.1 4.9 4.7 4.8 4.9 4.9 5.0 5.0 5.3 7.3 5.9 5.8 5.7 5.9 6.0 6.7 6.5 6.4 6.4 6.9 7.1 7.2 7.5 7.4 7.4 7.4 7.9 8.2 8.8 9.5 9.4 9.4 8.5 9.1
5.4 5.4 5.4 5.4 5.4 5.5 5.5 5.5 5.4 5.4 5.2 5.2 5.3 5.2 5.0 4.9 5.0 5.1 5.0 5.0 5.0 5.2 7.5 6.7 6.2 6.0 6.3 6.3 6.8 6.8 6.5 6.7 6.9 7.2 7.3 7.5 7.5 7.3 7.6 7.8 8.0 8.4 9.1 9.2 9.2 9.4 9.6
5.4 5.4 5.4 5.5 5.5 5.5 5.4 5.3 5.3 5.4 5.4 5.5 5.4 5.4 5.2 5.0 4.8 5.1 5.0 5.0 5.2 6.5 6.9 7.2 7.0 6.6 6.6 6.8 7.2 6.9 6.9 6.9 7.2 7.2 7.5 7.5 7.3 7.4 7.5 7.9 8.2 8.3 8.7 9.5 9.6 9.7 9.8
5.5 5.5 5.4 5.3 5.3 5.2 5.3 5.3 5.4 5.5 5.5 5.5 5.5 5.3 5.2 5.1 5.1 5.1 5.2 4.7 5.9 7.2 7.7 6.6 7.1 7.4 7.4 7.5 7.6 7.3 7.2 7.3 7.4 7.7 8.5 8.5 8.4 7.7 7.6 7.9 8.6 8.4 9.1 9.7 9.3 9.7 9.9
5.4 5.4 5.3 5.2 5.1 5.1 5.1 5.2 5.3 5.4 5.5 5.5 5.5 5.5 5.3 5.2 5.3 5.3 5.2 5.5 6.8 7.0 6.9 7.0 7.3 7.5 7.9 8.2 8.6 8.0 7.9 7.9 8.1 7.8 8.2 9.6 9.6 9.4 7.8 7.9 8.3 9.3 8.8 9.5 9.7 9.0 9.3
5.5 5.4 5.3 5.3 5.1 5.1 5.1 5.2 5.3 5.4 5.5 5.6 5.5 5.5 5.3 5.4 5.4 5.3 4.9 5.9 6.8 6.3 6.2 6.5 7.2 7.9 8.4 9.3 9.2 9.1 9.2 8.4 8.7 8.6 8.2 8.7 9.0 9.6 8.9 8.5 8.3 9.0 9.6 9.4 9.6 9.6 9.3
5.3 5.2 5.1 5.1 5.2 5.0 5.0 5.1 5.2 5.3 5.5 5.5 5.5 4.8 5.5 5.3 5.3 5.0 5.5 6.3 6.4 6.1 5.9 6.3 7.0 7.6 7.7 8.9 9.5 9.5 9.5 9.5 9.4 9.5 8.6 8.4 9.0 9.4 9.6 8.8 9.2 8.7 8.9 9.5 9.5 9.7 9.9
5.6 5.4 5.3 5.1 5.2 5.1 4.9 4.9 5.0 5.1 5.2 5.4 5.4 4.9 5.4 5.2 4.9 5.4 6.0 6.3 5.8 6.0 5.7 6.0 6.3 6.7 7.3 8.0 8.3 8.8 9.5 9.5 9.6 9.3 9.6 8.8 9.3 9.4 9.6 9.6 9.1 9.6 9.6 9.6 9.6 9.7 9.6
5.5 5.5 5.3 5.2 4.9 4.9 4.8 4.8 4.9 5.0 5.1 5.2 5.1 4.6 4.9 5.2 5.5 6.1 6.0 5.5 5.4 5.7 5.9 6.1 6.4 6.6 7.0 7.1 7.4 7.9 9.4 9.5 9.0 9.3 9.2 9.4 8.8 9.6 9.6 9.5 9.6 9.6 9.6 9.6 9.6 9.6 9.8
5.3 5.3 5.2 5.0 4.9 4.6 4.6 4.8 4.9 4.9 4.9 5.0 5.0 5.3 5.0 4.7 5.1 5.3 5.9 5.7 5.9 5.4 5.6 5.9 6.1 6.4 6.7 6.7 7.3 7.7 8.4 9.4 8.4 8.4 8.5 8.4 9.1 9.5 9.6 9.6 9.7 9.6 9.3 9.6 9.5 9.8 9.7
5.2 5.1 4.9 4.9 4.9 4.3 4.2 4.3 4.6 4.8 4.8 4.8 4.2 5.0 4.8 5.7 5.5 5.5 5.5 5.6 5.8 6.2 5.6 5.8 6.0 6.3 6.7 6.9 7.2 7.6 8.0 8.8 8.4 8.6 8.3 8.5 8.7 9.5 9.4 9.5 9.1 9.6 9.6 9.6 9.6 9.6 9.7
5.1 4.9 4.6 4.5 4.4 4.0 4.0 4.2 4.4 4.3 4.5 4.6 4.5 4.3 4.5 4.8 5.1 5.1 5.5 5.6 5.8 6.2 6.3 6.2 6.3 6.6 6.4 6.7 7.0 7.9 9.2 8.4 9.1 8.6 8.4 8.9 9.0 9.2 9.5 9.5 9.5 9.4 9.6 9.6 9.6 9.6 9.6
5.2 4.8 4.5 4.1 4.0 3.8 3.9 4.2 4.3 4.4 4.4 4.3 4.3 4.4 4.7 4.9 5.4 5.7 6.1 6.0 6.0 5.9 6.0 5.9 6.0 6.1 6.6 6.7 6.2 6.2 6.6 6.8 7.4 7.9 7.9 8.2 9.2 9.4 9.4 9.5 9.3 9.5 9.6 9.6 9.6 9.6 9.6
4.8 4.6 4.3 4.0 4.0 3.9 4.2 4.4 4.4 4.4 4.5 4.6 4.8 4.9 4.5 5.2 5.7 5.9 6.1 5.8 5.8 5.8 5.7 6.0 5.9 5.9 6.2 6.0 6.0 6.2 6.6 6.8 7.0 7.3 7.6 8.0 8.4 8.9 9.3 9.4 8.8 9.5 9.6 9.6 9.6 9.6 9.6
4.3 4.3 3.7 3.5 3.8 4.0 4.2 4.3 4.4 4.3 4.5 4.8 4.9 5.0 5.1 4.9 5.6 5.7 5.5 5.7 5.8 5.9 5.9 5.7 5.9 5.9 6.0 6.0 6.1 6.5 6.9 7.1 7.3 7.5 7.8 8.2 7.7 8.9 9.1 9.1 7.9 9.5 9.1 8.9 9.5 9.5 9.6
4.1 3.8 3.8 3.7 3.9 4.1 4.3 4.4 4.6 4.8 4.8 5.1 5.1 5.3 5.3 5.2 5.6 5.2 5.2 5.5 5.7 6.3 6.5 6.6 6.2 5.9 6.0 6.2 6.6 6.8 7.4 8.5 8.2 8.0 8.2 8.5 7.9 8.0 9.0 8.5 9.0 8.0 9.3 9.3 9.2 8.9 8.9
3.9 3.9 3.9 4.0 4.0 4.2 4.4 4.7 4.9 5.0 5.1 5.1 5.3 5.3 5.4 5.5 5.5 5.0 5.3 5.5 5.6 5.9 6.2 6.4 6.3 6.1 6.1 6.4 7.0 7.5 7.7 8.3 8.7 9.1 8.8 8.7 8.1 7.9 8.0 8.4 7.9 9.0 8.4 9.0 9.1 9.3 9.2
3.9 4.0 4.1 4.1 4.2 4.4 4.7 4.9 5.0 5.2 5.2 5.1 5.3 5.3 5.4 5.7 5.6 5.6 5.8 5.8 5.2 5.6 5.8 6.2 6.2 6.5 6.6 6.8 7.3 7.3 7.3 8.0 7.9 8.3 8.4 8.3 7.9 8.4 7.7 7.8 9.1 8.2 8.4 9.2 9.2 8.5 8.4
3.9 4.0 4.1 4.4 4.6 4.8 4.9 5.1 5.2 5.3 5.1 5.0 5.2 5.6 5.6 5.7 5.8 5.8 5.9 5.9 6.0 5.8 5.1 5.4 5.8 5.7 5.9 6.1 6.0 6.5 6.6 7.5 7.7 7.8 7.5 7.8 8.0 9.0 8.5 8.5 8.5 8.8 8.9 8.9 8.5 8.4 8.0
Wind_Speed
16 17 16 17 17 18 19 19 18 18 17 18 18 20 20 20 21 21 22 20 18 16 14 13 12 10 8 8 5 10 14 11 14 14 13 13 13 10 12 2 6 6 6 2 6 6 6
16 15 17 17 17 18 18 18 19 19 19 19 20 20 21 21 22 24 23 22 19 16 14 12 11 7 8 12 7 12 14 14 14 15 13 12 11 7 7 5 2 2 5 4 4 6 5
14 12 16 16 16 18 19 18 18 19 20 20 20 21 21 22 24 25 24 23 19 14 12 11 10 7 11 5 2 10 12 14 13 14 13 11 7 8 4 7 3 7 9 9 6 5 4
14 13 12 16 16 16 19 18 18 20 19 20 21 21 23 26 24 24 24 22 15 8 9 10 9 10 6 5 6 8 11 13 9 10 11 7 8 13 9 1 8 11 10 7 14 8 4
16 16 15 15 16 18 18 18 18 20 20 21 22 23 26 26 25 24 22 19 10 2 8 10 8 9 7 5 11 11 11 12 12 10 7 4 11 15 12 13 13 12 3 7 8 9 4
18 19 18 17 18 19 20 20 18 21 21 22 22 25 26 27 26 24 24 10 3 5 7 9 9 8 9 12 13 13 12 11 14 12 11 13 10 14 13 14 5 5 11 9 12 8 5
17 18 18 18 20 21 20 20 18 22 23 23 25 25 26 27 27 25 17 4 5 7 12 15 2 8 6 9 10 12 12 14 15 14 16 16 14 16 19 16 13 6 8 5 12 7 3
17 18 17 17 18 19 20 19 19 22 23 24 25 25 27 29 28 26 9 7 7 7 10 15 18 13 4 12 11 14 15 14 13 15 18 13 18 18 15 11 13 7 11 14 13 3 6
16 17 18 18 18 18 19 18 20 22 22 23 24 26 27 32 31 9 8 7 4 9 8 14 18 19 18 11 14 17 19 18 15 17 18 19 10 17 15 10 12 15 15 7 3 6 11
16 17 18 19 19 20 18 19 22 23 25 25 24 24 25 35 7 8 5 4 6 6 6 10 11 10 19 15 17 13 19 18 11 17 18 14 18 8 14 14 17 16 14 9 7 7 8
17 18 18 19 19 19 19 18 18 20 23 26 25 24 24 11 13 6 6 6 8 6 6 6 10 8 13 20 2 19 17 19 17 14 11 15 15 16 16 17 18 17 12 12 10 12 12
17 18 17 18 20 20 21 22 22 26 28 28 28 22 23 5 8 10 8 6 6 7 6 8 8 11 17 21 12 17 15 20 14 15 15 17 7 12 17 17 13 17 16 10 12 13 14
18 18 18 20 20 20 22 24 26 29 29 31 32 24 10 11 4 6 7 7 7 9 5 6 8 15 17 18 18 11 19 19 16 13 15 15 20 12 14 17 18 16 17 12 13 12 13
17 19 19 20 18 19 21 23 25 28 30 31 35 28 7 8 6 6 7 8 10 3 7 5 5 7 16 18 19 16 18 18 20 18 13 12 15 21 16 17 16 15 21 14 18 10 9
19 22 20 16 17 17 19 22 25 29 31 31 38 6 9 4 6 5 7 10 8 8 5 4 7 12 15 18 12 16 19 19 19 18 18 10 11 19 18 16 19 15 18 23 23 7 9
18 20 21 19 17 17 19 23 26 31 34 27 7 6 3 1 6 7 8 16 11 3 4 9 13 7 14 18 17 17 19 16 17 19 15 16 13 10 15 17 20 21 13 18 16 20 12
17 19 20 18 19 17 19 22 26 31 38 34 6 5 7 6 5 7 10 12 9 8 7 10 14 12 11 16 17 19 16 16 13 17 14 16 12 12 16 16 16 12 14 14 20 12 11
16 17 18 20 19 18 19 23 26 30 39 14 5 4 6 5 8 9 11 9 3 9 9 13 8 13 12 11 10 12 17 16 10 13 13 17 10 13 19 16 19 19 18 15 10 13 10
15 17 18 19 19 17 18 22 26 28 23 8 5 7 6 6 6 8 10 8 6 11 10 13 14 13 13 12 9 16 17 2 3 6 3 11 13 14 18 17 14 15 15 19 19 15 14
13 16 18 18 17 20 19 22 24 27 22 6 5 4 6 7 10 10 13 8 11 8 11 7 10 13 11 12 14 11 12 5 1 8 11 10 16 16 14 15 17 22 22 21 18 11 13
12 13 17 18 17 18 19 21 25 28 29 5 4 2 6 5 1 7 9 12 9 12 11 7 9 12 12 14 16 19 19 17 10 2 10 12 18 17 22 8 20 17 19 23 22 17 13
13 14 13 16 18 16 18 19 24 30 37 4 5 4 4 11 11 10 11 13 15 14 12 11 13 13 9 11 13 15 12 19 11 9 9 15 16 19 23 24 15 18 18 20 18 14 17
13 13 14 15 16 16 16 16 20 26 25 4 4 7 5 7 10 11 11 12 9 7 9 11 15 14 12 10 10 15 17 15 11 11 7 14 13 16 21 21 17 17 17 16 13 13 14
13 12 12 13 13 13 14 15 16 17 18 8 6 8 7 10 11 8 12 5 11 11 12 13 7 10 11 13 12 16 19 20 22 20 18 14 13 12 16 15 20 15 18 14 13 11 12
13 12 11 11 11 11 11 13 13 14 17 7 5 6 5 8 11 9 12 13 14 14 15 16 16 13 12 14 12 16 15 20 24 25 22 19 11 9 13 9 13 19 7 14 8 10 11
12 13 11 11 11 12 13 12 10 11 12 8 4 4 6 6 2 8 11 10 10 10 11 13 11 9 9 9 11 17 15 18 19 21 22 19 15 9 9 15 19 24 16 10 4 10 11
12 13 12 11 11 11 11 12 12 10 9 8 4 6 5 8 14 9 8 8 8 8 8 10 6 7 13 10 12 13 14 18 16 20 15 14 14 16 17 15 23 15 10 6 9 2 10
12 13 11 10 10 10 11 11 12 10 8 6 5 7 6 6 14 18 16 15 10 7 9 7 7 12 9 11 11 10 10 14 16 17 19 18 14 14 18 21 17 17 21 11 8 8 7
12 13 12 11 10 11 10 10 11 12 7 5 5 3 6 5 12 20 20 19 16 15 12 11 11 8 3 4 3 5 8 10 11 15 11 13 19 15 13 15 10 10 13 7 6 8 6
Wind_Direction
13 17 19 15 14 10 4 1 358 358 354 350 346 344 343 341 335 327 321 316 310 303 297 292 288 294 277 220 246 117 144 162 188 212 224 216 228 234 269 254 209 229 123 179 150 154 100
13 23 15 13 10 6 359 356 356 356 352 347 345 342 341 335 330 325 323 318 308 296 285 276 270 277 242 247 89 128 165 177 199 212 220 226 236 251 300 267 235 286 111 135 151 204 203
9 23 15 9 4 4 355 352 350 346 345 346 345 339 335 328 325 324 323 318 307 282 267 254 246 244 257 349 130 156 178 194 199 213 228 226 271 241 228 222 139 202 175 169 168 144 172
3 8 11 4 359 355 357 350 348 348 346 345 342 338 331 325 325 325 325 324 315 262 233 227 222 239 279 109 182 181 187 197 202 221 262 219 230 264 259 292 202 232 164 327 138 155 142
1 3 355 347 353 352 350 352 348 347 345 344 341 335 328 326 326 325 323 320 314 129 189 193 213 232 225 128 197 188 196 198 194 209 215 254 243 240 213 246 219 200 327 159 172 167 142
10 4 355 351 344 347 347 349 348 347 343 342 340 330 328 326 325 324 316 284 322 179 201 213 270 248 212 208 187 169 195 216 193 193 206 220 226 230 232 224 256 320 163 227 125 221 192
1 352 351 353 348 344 341 347 348 345 342 340 334 331 327 324 322 321 316 212 213 197 212 247 255 242 140 132 139 184 180 188 190 194 211 203 218 223 228 229 268 267 191 74 332 116 222
352 351 348 350 347 345 344 345 343 342 338 335 331 330 327 323 319 316 284 273 41 345 291 253 243 242 208 168 185 188 182 197 195 205 212 183 230 239 241 242 244 247 244 173 180 192 238
353 348 349 347 346 345 343 340 337 337 333 333 329 328 327 320 317 291 297 316 341 326 262 265 219 218 209 208 228 186 192 210 197 216 208 229 226 227 243 223 243 235 251 185 182 192 240
346 351 352 348 343 335 340 334 335 335 333 330 328 327 329 323 299 335 273 74 293 320 272 170 193 226 202 199 228 211 189 211 219 230 229 230 251 215 242 229 234 242 215 264 211 249 280
348 344 347 343 336 338 332 325 330 334 329 325 324 324 324 321 314 278 14 300 311 256 272 142 125 114 181 193 137 198 180 212 227 219 227 228 229 215 230 235 234 249 259 228 205 249 274
347 342 342 340 339 340 338 337 340 338 332 325 319 322 324 231 218 274 301 286 253 235 247 145 146 187 183 207 192 154 186 220 227 248 224 260 237 237 237 234 240 246 250 256 247 241 244
346 341 335 333 338 341 343 342 341 334 327 320 313 314 298 301 303 335 296 243 229 245 95 170 197 172 199 193 212 177 190 199 215 220 227 213 241 214 249 221 219 223 225 225 223 222 236
340 335 332 336 346 348 348 344 335 328 323 318 312 310 204 253 298 274 248 227 249 320 271 93 286 202 206 188 211 194 194 209 216 230 259 209 208 220 208 237 209 218 220 228 214 225 239
343 347 345 350 348 350 350 341 335 328 324 324 311 203 226 137 223 251 235 224 237 268 20 307 249 243 219 221 210 200 211 214 217 215 248 270 231 188 211 206 239 198 229 242 258 241 217
348 350 354 347 350 350 348 342 339 332 327 331 309 268 133 95 190 215 233 250 262 300 320 265 262 246 250 204 208 236 208 227 232 218 220 256 265 229 180 215 217 251 232 232 247 258 244
347 346 346 343 344 342 348 345 343 338 333 325 261 251 113 161 210 224 236 234 269 171 261 264 264 271 261 287 211 216 232 229 218 234 215 235 252 253 201 204 220 210 244 234 255 249 267
346 345 346 352 342 341 348 346 344 345 341 317 282 260 130 194 233 225 252 301 13 284 200 258 261 290 289 283 274 271 254 226 205 228 219 215 246 240 209 202 227 228 217 238 240 228 278
345 347 344 343 345 337 342 344 342 346 0 319 286 296 150 233 258 239 218 272 246 258 246 255 255 251 261 268 252 265 257 191 71 233 243 242 230 242 244 197 221 240 243 224 227 237 245
341 343 341 337 339 352 336 339 341 341 346 319 280 272 174 210 265 283 298 263 251 185 283 290 284 283 270 254 256 272 267 261 94 256 15 313 261 235 234 213 202 207 233 249 248 236 243
330 340 342 342 343 344 339 350 347 339 334 301 254 358 4 277 173 301 301 283 290 259 192 261 261 249 260 256 246 240 243 265 233 220 254 250 257 258 259 239 263 252 202 224 231 254 259
327 329 334 336 337 335 340 347 346 343 333 254 307 340 357 285 280 270 262 258 260 257 265 266 241 259 312 251 270 287 252 244 254 258 252 239 245 254 257 268 215 262 203 211 218 244 263
324 326 329 332 332 337 340 345 348 346 338 309 27 272 267 289 267 258 260 271 262 314 296 276 292 294 282 270 330 311 312 297 281 278 259 290 264 237 246 250 240 235 245 209 200 222 247
320 320 326 328 331 338 344 347 347 344 344 324 349 301 275 275 269 269 293 267 273 273 276 287 279 275 281 304 296 282 267 260 258 254 250 241 258 259 250 241 253 228 229 244 220 226 231
317 324 318 324 333 335 331 335 348 339 340 302 315 310 312 278 291 293 273 266 264 263 244 253 262 266 272 266 268 264 246 246 238 230 237 237 236 252 247 220 234 259 164 221 235 246 267
315 318 311 304 314 319 323 329 333 340 330 299 275 277 270 291 327 359 300 276 281 275 265 244 237 250 280 260 258 252 259 246 223 224 226 228 188 251 247 221 215 251 199 175 255 248 234
313 315 310 306 307 311 322 326 331 331 331 308 274 254 274 279 272 287 266 312 339 308 287 305 262 254 223 246 249 250 252 265 256 211 180 206 198 201 241 257 223 88 56 167 207 80 174
312 316 309 307 303 306 314 322 329 327 328 306 283 252 273 292 294 293 287 278 269 237 272 352 303 216 259 239 258 268 276 245 257 250 186 194 192 194 209 246 250 108 178 202 99 111 82
310 319 309 309 308 304 311 324 329 335 314 307 279 7 296 263 286 305 290 283 275 277 283 286 280 317 335 305 305 305 249 287 252 266 142 244 199 194 195 232 343 100 250 167 116 120 128